Location: Gairloch Mountain Observatory
(46.1383°N, 60.9640°W)
Time: 13:39:03
(UTC-03:00)

CENTAUR R/B - Visible Passes

Search period start: 30 October 2014 00:00
Search period end: 08 November 2014 23:00
Orbit: 893 x 1296 km, 63.5° (Epoch: 25 October)

Date Brightness Start Highest point End Pass type
(mag) Time Alt. Az. Time Alt. Az. Time Alt. Az.
30 Oct 2.7 18:12:34 10° SSW 18:18:42 65° ESE 18:25:31 10° NE visible
30 Oct 3.9 20:03:56 10° W 20:09:52 36° NNW 20:15:32 13° NNE visible
30 Oct 4.7 21:57:53 10° NW 22:02:43 20° N 22:02:43 20° N visible
31 Oct 3.4 19:15:10 10° WSW 19:21:21 51° NW 19:28:12 10° NE visible
31 Oct 4.5 21:08:41 10° WNW 21:13:49 22° NNW 21:16:07 19° N visible
31 Oct 5.2 23:01:58 10° NW 23:03:18 14° NNW 23:03:18 14° NNW visible
01 Nov 2.8 18:26:44 10° SW 18:33:01 75° NW 18:40:01 10° NE visible
01 Nov 4.3 20:19:27 10° W 20:24:57 27° NNW 20:29:28 15° NNE visible
01 Nov 4.8 22:13:18 10° NW 22:16:39 18° NNW 22:16:39 18° NNW visible
02 Nov 4.0 18:30:22 10° W 18:36:13 34° NNW 18:42:37 10° NNE visible
02 Nov 4.6 20:24:20 10° NW 20:29:14 20° N 20:30:00 20° N visible
02 Nov 5.3 22:16:39 10° NNW 22:17:11 12° NNW 22:17:11 12° NNW visible
03 Nov 3.5 17:41:31 10° WSW 17:47:39 47° NW 17:54:26 10° NNE visible
03 Nov 4.5 19:35:10 10° WNW 19:40:14 22° NNW 19:43:19 17° NNE visible
03 Nov 5.0 21:28:17 10° NW 21:30:30 17° NNW 21:30:30 17° NNW visible
04 Nov 4.3 18:45:56 10° WNW 18:51:20 25° NNW 18:56:38 12° NNE visible
04 Nov 4.7 20:39:40 10° NW 20:43:49 20° N 20:43:49 20° N visible
05 Nov 4.0 17:56:48 10° W 18:02:34 32° NNW 18:08:52 10° NNE visible
05 Nov 4.5 19:50:47 10° NW 19:55:40 20° N 19:57:08 19° NNE visible
05 Nov 5.1 21:42:54 10° NNW 21:44:18 15° NNW 21:44:18 15° NNW visible
06 Nov 3.6 17:07:53 10° WSW 17:13:57 43° NW 17:20:39 10° NNE visible
06 Nov 4.5 19:01:39 10° WNW 19:06:39 21° N 19:10:26 14° NNE visible
06 Nov 4.8 20:54:34 10° NNW 20:57:37 19° N 20:57:37 19° N visible
07 Nov 4.3 18:12:25 10° WNW 18:17:43 24° NNW 18:23:27 10° NNE visible
07 Nov 4.5 20:06:01 10° NW 20:10:55 20° N 20:10:55 20° N visible
07 Nov 5.3 21:57:18 10° NNW 21:58:06 13° NNW 21:58:06 13° NNW visible
08 Nov 4.1 17:23:14 10° W 17:28:55 30° NNW 17:35:06 10° NNE visible
08 Nov 4.5 19:17:12 10° NW 19:22:06 20° N 19:24:13 17° NNE visible
08 Nov 4.9 21:09:08 10° NNW 21:11:24 19° NNW 21:11:24 19° NNW visible
